Location: Deuil
(48.9767°N, 2.3272°E)
Time: 01:38:19
(UTC+00:00)

NOAA 17 DEB - Visible Passes

Search period start: 15 August 2022 00:00
Search period end: 25 August 2022 00:00
Orbit: 785 x 836 km, 98.7° (Epoch: 12 August)

Date Brightness Start Highest point End Pass type
(mag) Time Alt. Az. Time Alt. Az. Time Alt. Az.
15 Aug ? 01:20:12 10° NE 01:24:35 26° E 01:27:00 19° SE visible
15 Aug ? 02:59:40 10° N 03:04:44 51° WNW 03:08:09 20° SW visible
16 Aug ? 00:57:30 10° NE 01:00:51 17° E 01:03:11 13° ESE visible
16 Aug ? 02:36:05 10° NNE 02:41:21 78° WNW 02:44:20 27° SSW visible
17 Aug ? 00:36:15 10° ENE 00:37:02 10° E 00:37:49 10° E visible
17 Aug ? 02:12:37 10° NNE 02:17:53 69° ESE 02:20:30 30° S visible
17 Aug ? 03:53:24 10° N 03:57:18 22° WNW 04:01:13 10° WSW visible
18 Aug ? 01:49:17 10° NNE 01:54:21 45° E 01:56:41 28° SSE visible
18 Aug ? 03:29:30 10° N 03:34:04 31° WNW 03:37:50 14° WSW visible
19 Aug ? 01:26:08 10° NE 01:30:42 29° E 01:32:51 22° SE visible
19 Aug ? 03:05:46 10° N 03:10:47 46° WNW 03:14:00 21° SW visible
20 Aug ? 01:03:17 10° NE 01:07:00 19° E 01:09:01 16° ESE visible
20 Aug ? 02:42:08 10° N 02:47:23 70° WNW 02:50:10 29° SSW visible
21 Aug ? 00:41:13 10° ENE 00:43:11 12° E 00:45:09 10° ESE visible
21 Aug ? 02:18:38 10° NNE 02:23:56 77° ESE 02:26:20 34° S visible
21 Aug ? 03:59:34 10° NNW 04:03:16 20° WNW 04:06:59 10° WSW visible
22 Aug ? 01:55:14 10° NNE 02:00:24 50° E 02:02:29 32° SSE visible
22 Aug ? 03:35:36 10° N 03:40:03 28° WNW 03:43:38 14° WSW visible
23 Aug ? 01:32:01 10° NNE 01:36:46 32° E 01:38:39 26° SE visible
23 Aug ? 03:11:48 10° N 03:16:45 42° WNW 03:19:48 22° SW visible
24 Aug ? 01:09:03 10° NE 01:13:04 21° E 01:14:47 18° ESE visible
24 Aug ? 02:48:08 10° N 02:53:22 63° WNW 02:55:56 30° SW visible
